Time,TemperatureF,DewpointF,PressureIn,WindDirection,WindDirectionDegrees,WindSpeedMPH,WindSpeedGustMPH,Humidity,HourlyPrecipIn,Conditions,Clouds,dailyrainin,SoftwareType,DateUTC
2013-03-04 00:01:00,72.0,63.0,30.17,ENE,66,14.0,19.0,73,0.00,,,0.04,,2013-03-04 10:01:00,
2013-03-04 00:11:00,72.0,63.0,30.17,ENE,66,14.0,19.0,73,0.00,,,0.04,,2013-03-04 10:11:00,
2013-03-04 00:21:00,72.0,62.0,30.17,ENE,57,13.0,19.0,72,0.00,,,0.04,,2013-03-04 10:21:00,
2013-03-04 00:31:00,72.0,62.0,30.17,ENE,58,15.0,19.0,71,0.00,,,0.04,,2013-03-04 10:31:00,
2013-03-04 00:41:00,72.0,62.0,30.17,ENE,58,15.0,19.0,71,0.00,,,0.04,,2013-03-04 10:41:00,
2013-03-04 00:52:00,72.0,62.0,30.17,ENE,66,14.0,19.0,70,0.00,,,0.04,,2013-03-04 10:52:00,
2013-03-04 01:01:00,72.0,62.0,30.16,NE,48,13.0,18.0,72,0.00,,,0.04,,2013-03-04 11:01:00,
2013-03-04 01:11:00,72.0,62.0,30.16,NE,48,13.0,18.0,72,0.00,,,0.04,,2013-03-04 11:11:00,
2013-03-04 01:21:00,71.0,62.0,30.16,North,4,14.0,20.0,73,0.00,,,0.03,,2013-03-04 11:21:00,
2013-03-04 01:31:00,71.0,62.0,30.16,ENE,59,11.0,18.0,73,0.00,,,0.03,,2013-03-04 11:31:00,
2013-03-04 01:41:00,71.0,62.0,30.16,ENE,59,11.0,18.0,73,0.00,,,0.03,,2013-03-04 11:41:00,
2013-03-04 01:52:00,71.0,62.0,30.15,ENE,62,13.0,18.0,73,0.00,,,0.03,,2013-03-04 11:52:00,
2013-03-04 02:01:00,71.0,61.0,30.15,NE,39,11.0,17.0,70,0.00,,,0.03,,2013-03-04 12:01:00,
2013-03-04 02:11:00,71.0,61.0,30.15,NE,39,11.0,17.0,70,0.00,,,0.03,,2013-03-04 12:11:00,
2013-03-04 02:22:00,71.0,62.0,30.14,NNE,18,7.0,14.0,72,0.00,,,0.01,,2013-03-04 12:22:00,
2013-03-04 02:32:00,71.0,60.0,30.14,NW,316,4.0,8.0,68,0.00,,,0.01,,2013-03-04 12:32:00,
2013-03-04 02:42:00,71.0,60.0,30.14,NW,316,4.0,8.0,68,0.00,,,0.01,,2013-03-04 12:42:00,
2013-03-04 02:52:00,71.0,59.0,30.14,NNW,332,3.0,7.0,65,0.00,,,0.01,,2013-03-04 12:52:00,
2013-03-04 03:02:00,71.0,58.0,30.14,NNW,336,4.0,8.0,64,0.00,,,0.01,,2013-03-04 13:02:00,
2013-03-04 03:11:00,71.0,58.0,30.14,NNW,336,4.0,8.0,64,0.00,,,0.01,,2013-03-04 13:11:00,
2013-03-04 03:21:00,71.0,59.0,30.14,North,6,4.0,9.0,66,0.00,,,0.00,,2013-03-04 13:21:00,
2013-03-04 03:31:00,70.0,58.0,30.13,WNW,292,2.0,5.0,66,0.00,,,0.00,,2013-03-04 13:31:00,
2013-03-04 03:41:00,70.0,58.0,30.13,WNW,292,2.0,5.0,66,0.00,,,0.00,,2013-03-04 13:41:00,
2013-03-04 03:52:00,67.0,58.0,30.14,WNW,302,2.0,5.0,73,0.00,,,0.00,,2013-03-04 13:52:00,
2013-03-04 04:01:00,66.0,59.0,30.14,WNW,291,3.0,6.0,77,0.00,,,0.00,,2013-03-04 14:01:00,
2013-03-04 04:11:00,66.0,59.0,30.14,WNW,291,3.0,6.0,77,0.00,,,0.00,,2013-03-04 14:11:00,
2013-03-04 04:22:00,65.0,58.0,30.14,WNW,297,3.0,5.0,78,0.00,,,0.00,,2013-03-04 14:22:00,
2013-03-04 04:31:00,65.0,59.0,30.14,North,359,4.0,5.0,80,0.00,,,0.00,,2013-03-04 14:31:00,
2013-03-04 04:41:00,65.0,59.0,30.14,North,359,4.0,5.0,80,0.00,,,0.00,,2013-03-04 14:41:00,
2013-03-04 04:52:00,66.0,59.0,30.14,North,354,3.0,6.0,79,0.00,,,0.00,,2013-03-04 14:52:00,
2013-03-04 05:01:00,69.0,62.0,30.15,NNE,18,7.0,12.0,79,0.00,,,0.00,,2013-03-04 15:01:00,
2013-03-04 05:11:00,69.0,62.0,30.15,NNE,18,7.0,12.0,79,0.00,,,0.00,,2013-03-04 15:11:00,
2013-03-04 05:21:00,69.0,61.0,30.15,North,4,3.0,10.0,77,0.00,,,0.00,,2013-03-04 15:21:00,
2013-03-04 05:31:00,67.0,59.0,30.16,WNW,299,3.0,7.0,75,0.00,,,0.00,,2013-03-04 15:31:00,
2013-03-04 05:41:00,67.0,59.0,30.16,WNW,299,3.0,7.0,75,0.00,,,0.00,,2013-03-04 15:41:00,
2013-03-04 05:52:00,66.0,59.0,30.16,WNW,303,2.0,7.0,77,0.00,,,0.00,,2013-03-04 15:52:00,
2013-03-04 06:02:00,66.0,59.0,30.16,WNW,291,3.0,5.0,78,0.00,,,0.00,,2013-03-04 16:02:00,
2013-03-04 06:11:00,66.0,59.0,30.16,WNW,291,3.0,5.0,78,0.00,,,0.00,,2013-03-04 16:11:00,
2013-03-04 06:21:00,67.0,60.0,30.17,North,4,3.0,6.0,79,0.00,,,0.00,,2013-03-04 16:21:00,
2013-03-04 06:31:00,67.0,60.0,30.17,WNW,285,3.0,6.0,77,0.00,,,0.00,,2013-03-04 16:31:00,
2013-03-04 06:41:00,67.0,60.0,30.17,WNW,285,3.0,6.0,77,0.00,,,0.00,,2013-03-04 16:41:00,
2013-03-04 06:52:00,66.0,59.0,30.18,WNW,288,4.0,7.0,78,0.00,,,0.00,,2013-03-04 16:52:00,
2013-03-04 07:01:00,66.0,59.0,30.18,WNW,282,3.0,7.0,79,0.00,,,0.00,,2013-03-04 17:01:00,
2013-03-04 07:11:00,66.0,59.0,30.18,WNW,282,3.0,7.0,79,0.00,,,0.00,,2013-03-04 17:11:00,
2013-03-04 07:21:00,66.0,59.0,30.19,West,278,3.0,6.0,79,0.00,,,0.00,,2013-03-04 17:21:00,
2013-03-04 07:31:00,65.0,59.0,30.19,WNW,285,2.0,6.0,80,0.00,,,0.00,,2013-03-04 17:31:00,
2013-03-04 07:42:00,65.0,59.0,30.19,WNW,285,2.0,6.0,80,0.00,,,0.00,,2013-03-04 17:42:00,
2013-03-04 07:52:00,66.0,60.0,30.19,West,276,2.0,5.0,80,0.00,,,0.00,,2013-03-04 17:52:00,
2013-03-04 08:01:00,66.0,60.0,30.20,West,275,2.0,5.0,81,0.00,,,0.00,,2013-03-04 18:01:00,
2013-03-04 08:11:00,66.0,60.0,30.20,West,275,2.0,5.0,81,0.00,,,0.00,,2013-03-04 18:11:00,
2013-03-04 08:21:00,67.0,61.0,30.20,WNW,302,3.0,8.0,80,0.00,,,0.00,,2013-03-04 18:21:00,
2013-03-04 08:31:00,68.0,61.0,30.20,NW,319,2.0,6.0,79,0.00,,,0.00,,2013-03-04 18:31:00,
2013-03-04 08:42:00,68.0,61.0,30.20,NW,319,2.0,6.0,79,0.00,,,0.00,,2013-03-04 18:42:00,
2013-03-04 08:52:00,70.0,63.0,30.21,North,6,5.0,13.0,79,0.00,,,0.00,,2013-03-04 18:52:00,
2013-03-04 09:01:00,71.0,63.0,30.21,NNE,25,10.0,15.0,76,0.00,,,0.00,,2013-03-04 19:01:00,
2013-03-04 09:11:00,71.0,63.0,30.21,NNE,25,10.0,15.0,76,0.00,,,0.00,,2013-03-04 19:11:00,
2013-03-04 09:21:00,72.0,63.0,30.21,North,8,8.0,14.0,74,0.00,,,0.00,,2013-03-04 19:21:00,
2013-03-04 09:31:00,73.0,63.0,30.21,North,360,7.0,12.0,70,0.00,,,0.00,,2013-03-04 19:31:00,
2013-03-04 09:41:00,73.0,63.0,30.21,North,360,7.0,12.0,70,0.00,,,0.00,,2013-03-04 19:41:00,
2013-03-04 09:52:00,74.0,63.0,30.21,North,355,6.0,13.0,68,0.00,,,0.00,,2013-03-04 19:52:00,
2013-03-04 10:01:00,75.0,59.0,30.20,NE,45,7.0,12.0,58,0.00,,,0.00,,2013-03-04 20:01:00,
2013-03-04 10:11:00,75.0,59.0,30.20,NE,45,7.0,12.0,58,0.00,,,0.00,,2013-03-04 20:11:00,
2013-03-04 10:21:00,76.0,59.0,30.20,North,10,7.0,12.0,55,0.00,,,0.00,,2013-03-04 20:21:00,
2013-03-04 10:31:00,76.0,60.0,30.20,NW,308,5.0,11.0,58,0.00,,,0.00,,2013-03-04 20:31:00,
2013-03-04 10:41:00,76.0,60.0,30.20,NW,308,5.0,11.0,58,0.00,,,0.00,,2013-03-04 20:41:00,
2013-03-04 10:52:00,76.0,59.0,30.20,NNE,22,7.0,11.0,55,0.00,,,0.00,,2013-03-04 20:52:00,
2013-03-04 11:01:00,75.0,61.0,30.19,NE,45,8.0,14.0,62,0.00,,,0.00,,2013-03-04 21:01:00,
2013-03-04 11:11:00,75.0,61.0,30.19,NE,45,8.0,14.0,62,0.00,,,0.00,,2013-03-04 21:11:00,
2013-03-04 11:21:00,75.0,63.0,30.19,NNW,339,9.0,14.0,66,0.00,,,0.00,,2013-03-04 21:21:00,
2013-03-04 11:31:00,74.0,63.0,30.18,NE,45,8.0,14.0,68,0.00,,,0.00,,2013-03-04 21:31:00,
2013-03-04 11:42:00,74.0,63.0,30.18,NE,45,8.0,14.0,68,0.00,,,0.00,,2013-03-04 21:42:00,
2013-03-04 11:52:00,75.0,63.0,30.18,North,7,8.0,13.0,66,0.00,,,0.00,,2013-03-04 21:52:00,
2013-03-04 12:01:00,75.0,62.0,30.17,NE,53,8.0,13.0,64,0.00,,,0.00,,2013-03-04 22:01:00,
2013-03-04 12:11:00,75.0,62.0,30.17,NE,53,8.0,13.0,64,0.00,,,0.00,,2013-03-04 22:11:00,
2013-03-04 12:21:00,75.0,62.0,30.16,NE,56,8.0,13.0,65,0.00,,,0.00,,2013-03-04 22:21:00,
2013-03-04 12:31:00,75.0,62.0,30.16,NNE,22,7.0,13.0,65,0.00,,,0.00,,2013-03-04 22:31:00,
2013-03-04 12:42:00,75.0,62.0,30.16,NNE,22,7.0,13.0,65,0.00,,,0.00,,2013-03-04 22:42:00,
2013-03-04 12:52:00,74.0,64.0,30.15,NNE,22,8.0,13.0,71,0.00,,,0.00,,2013-03-04 22:52:00,
2013-03-04 13:01:00,74.0,65.0,30.15,NE,50,12.0,17.0,74,0.00,,,0.00,,2013-03-04 23:01:00,
2013-03-04 13:11:00,74.0,65.0,30.15,NE,50,12.0,17.0,74,0.00,,,0.00,,2013-03-04 23:11:00,
2013-03-04 13:21:00,73.0,65.0,30.14,NE,54,11.0,16.0,77,0.00,,,0.00,,2013-03-04 23:21:00,
2013-03-04 13:31:00,73.0,65.0,30.14,North,357,11.0,15.0,77,0.00,,,0.00,,2013-03-04 23:31:00,
2013-03-04 13:41:00,73.0,65.0,30.14,North,357,11.0,15.0,77,0.00,,,0.00,,2013-03-04 23:41:00,
2013-03-04 13:52:00,73.0,65.0,30.13,North,7,10.0,15.0,76,0.00,,,0.00,,2013-03-04 23:52:00,
2013-03-04 14:01:00,73.0,64.0,30.12,NNE,32,8.0,13.0,74,0.00,,,0.00,,2013-03-05 00:01:00,
2013-03-04 14:11:00,73.0,64.0,30.12,NNE,32,8.0,13.0,74,0.00,,,0.00,,2013-03-05 00:11:00,
2013-03-04 14:21:00,73.0,64.0,30.11,NE,49,8.0,12.0,73,0.00,,,0.00,,2013-03-05 00:21:00,
2013-03-04 14:32:00,73.0,65.0,30.11,NE,35,8.0,12.0,75,0.00,,,0.00,,2013-03-05 00:32:00,
2013-03-04 14:41:00,73.0,65.0,30.11,NE,35,8.0,12.0,75,0.00,,,0.00,,2013-03-05 00:41:00,
2013-03-04 14:52:00,73.0,64.0,30.10,NE,49,8.0,12.0,74,0.00,,,0.00,,2013-03-05 00:52:00,
2013-03-04 15:01:00,74.0,65.0,30.10,North,6,8.0,12.0,73,0.00,,,0.00,,2013-03-05 01:01:00,
2013-03-04 15:11:00,74.0,65.0,30.10,North,6,8.0,12.0,73,0.00,,,0.00,,2013-03-05 01:11:00,
2013-03-04 15:21:00,74.0,64.0,30.10,NNE,14,9.0,13.0,71,0.00,,,0.00,,2013-03-05 01:21:00,
2013-03-04 15:32:00,74.0,64.0,30.10,NE,43,8.0,13.0,72,0.00,,,0.00,,2013-03-05 01:32:00,
2013-03-04 15:41:00,74.0,64.0,30.10,NE,43,8.0,13.0,72,0.00,,,0.00,,2013-03-05 01:41:00,
2013-03-04 15:52:00,74.0,64.0,30.10,NNE,14,9.0,15.0,72,0.00,,,0.00,,2013-03-05 01:52:00,
2013-03-04 16:01:00,74.0,65.0,30.10,NNW,347,6.0,12.0,73,0.00,,,0.00,,2013-03-05 02:01:00,
2013-03-04 16:11:00,74.0,65.0,30.10,NNW,347,6.0,12.0,73,0.00,,,0.00,,2013-03-05 02:11:00,
2013-03-04 16:21:00,74.0,65.0,30.10,NNE,30,8.0,14.0,73,0.00,,,0.00,,2013-03-05 02:21:00,
2013-03-04 16:31:00,73.0,65.0,30.10,ENE,58,8.0,15.0,75,0.00,,,0.00,,2013-03-05 02:31:00,
2013-03-04 16:41:00,73.0,65.0,30.10,ENE,58,8.0,15.0,75,0.00,,,0.00,,2013-03-05 02:41:00,
2013-03-04 16:52:00,73.0,64.0,30.10,NNE,12,6.0,12.0,74,0.00,,,0.00,,2013-03-05 02:52:00,
2013-03-04 17:01:00,73.0,64.0,30.11,NNW,339,6.0,12.0,74,0.00,,,0.00,,2013-03-05 03:01:00,
2013-03-04 17:11:00,73.0,64.0,30.11,NNW,339,6.0,12.0,74,0.00,,,0.00,,2013-03-05 03:11:00,
2013-03-04 17:21:00,72.0,63.0,30.11,East,81,5.0,12.0,73,0.00,,,0.00,,2013-03-05 03:21:00,
2013-03-04 17:31:00,72.0,63.0,30.11,NNE,33,7.0,12.0,74,0.00,,,0.00,,2013-03-05 03:31:00,
2013-03-04 17:41:00,72.0,63.0,30.11,NNE,33,7.0,12.0,74,0.00,,,0.00,,2013-03-05 03:41:00,
2013-03-04 17:52:00,72.0,63.0,30.12,NNE,12,8.0,12.0,74,0.00,,,0.00,,2013-03-05 03:52:00,
2013-03-04 18:01:00,72.0,64.0,30.12,NE,35,7.0,12.0,75,0.00,,,0.00,,2013-03-05 04:01:00,
2013-03-04 18:11:00,72.0,64.0,30.12,NE,35,7.0,12.0,75,0.00,,,0.00,,2013-03-05 04:11:00,
2013-03-04 18:21:00,72.0,64.0,30.12,NE,45,5.0,10.0,75,0.00,,,0.00,,2013-03-05 04:21:00,
2013-03-04 18:31:00,72.0,64.0,30.12,NNW,339,5.0,12.0,76,0.00,,,0.00,,2013-03-05 04:31:00,
2013-03-04 18:41:00,72.0,64.0,30.12,NNW,339,5.0,12.0,76,0.00,,,0.00,,2013-03-05 04:41:00,
2013-03-04 18:52:00,71.0,63.0,30.13,NNE,12,5.0,13.0,77,0.00,,,0.00,,2013-03-05 04:52:00,
2013-03-04 19:01:00,71.0,63.0,30.13,North,355,7.0,12.0,77,0.00,,,0.00,,2013-03-05 05:01:00,
2013-03-04 19:11:00,71.0,63.0,30.13,North,355,7.0,12.0,77,0.00,,,0.00,,2013-03-05 05:11:00,
2013-03-04 19:22:00,71.0,63.0,30.14,North,360,6.0,13.0,76,0.00,,,0.00,,2013-03-05 05:22:00,
2013-03-04 19:31:00,71.0,63.0,30.14,North,1,5.0,8.0,77,0.00,,,0.00,,2013-03-05 05:31:00,
2013-03-04 19:41:00,71.0,63.0,30.14,North,1,5.0,8.0,77,0.00,,,0.00,,2013-03-05 05:41:00,
2013-03-04 19:52:00,71.0,63.0,30.14,North,2,5.0,11.0,77,0.00,,,0.00,,2013-03-05 05:52:00,
2013-03-04 20:01:00,71.0,64.0,30.14,NE,37,5.0,10.0,78,0.00,,,0.00,,2013-03-05 06:01:00,
2013-03-04 20:11:00,71.0,64.0,30.14,NE,37,5.0,10.0,78,0.00,,,0.00,,2013-03-05 06:11:00,
2013-03-04 20:22:00,72.0,65.0,30.15,NE,43,10.0,15.0,78,0.00,,,0.00,,2013-03-05 06:22:00,
2013-03-04 20:31:00,71.0,64.0,30.15,NE,39,10.0,15.0,79,0.00,,,0.00,,2013-03-05 06:31:00,
2013-03-04 20:41:00,71.0,64.0,30.15,NE,39,10.0,15.0,79,0.00,,,0.00,,2013-03-05 06:41:00,
2013-03-04 20:52:00,71.0,64.0,30.15,NNE,16,9.0,15.0,79,0.00,,,0.00,,2013-03-05 06:52:00,
2013-03-04 21:01:00,71.0,64.0,30.16,NNE,31,9.0,15.0,79,0.00,,,0.00,,2013-03-05 07:01:00,
2013-03-04 21:11:00,71.0,64.0,30.16,NNE,31,9.0,15.0,79,0.00,,,0.00,,2013-03-05 07:11:00,
2013-03-04 21:21:00,71.0,64.0,30.16,North,10,9.0,15.0,79,0.00,,,0.00,,2013-03-05 07:21:00,
2013-03-04 21:31:00,71.0,64.0,30.16,NNE,19,8.0,15.0,79,0.00,,,0.00,,2013-03-05 07:31:00,
2013-03-04 21:41:00,71.0,64.0,30.16,NNE,19,8.0,15.0,79,0.00,,,0.00,,2013-03-05 07:41:00,
2013-03-04 21:52:00,72.0,65.0,30.16,NE,41,10.0,14.0,80,0.00,,,0.00,,2013-03-05 07:52:00,
2013-03-04 22:01:00,72.0,65.0,30.16,NE,53,12.0,16.0,80,0.00,,,0.00,,2013-03-05 08:01:00,
2013-03-04 22:11:00,72.0,65.0,30.16,NE,53,12.0,16.0,80,0.00,,,0.00,,2013-03-05 08:11:00,
2013-03-04 22:21:00,71.0,65.0,30.16,ENE,62,11.0,19.0,80,0.00,,,0.00,,2013-03-05 08:21:00,
2013-03-04 22:31:00,71.0,64.0,30.16,ENE,64,12.0,18.0,79,0.00,,,0.00,,2013-03-05 08:31:00,
2013-03-04 22:41:00,71.0,64.0,30.16,ENE,64,12.0,18.0,79,0.00,,,0.00,,2013-03-05 08:41:00,
2013-03-04 22:52:00,71.0,65.0,30.16,NE,45,10.0,17.0,80,0.00,,,0.00,,2013-03-05 08:52:00,
2013-03-04 23:01:00,71.0,64.0,30.16,NE,53,12.0,19.0,79,0.00,,,0.00,,2013-03-05 09:01:00,
2013-03-04 23:11:00,71.0,64.0,30.16,NE,53,12.0,19.0,79,0.00,,,0.00,,2013-03-05 09:11:00,
2013-03-04 23:21:00,71.0,65.0,30.16,NE,43,12.0,17.0,80,0.00,,,0.00,,2013-03-05 09:21:00,
2013-03-04 23:31:00,71.0,65.0,30.16,ENE,71,11.0,17.0,81,0.00,,,0.00,,2013-03-05 09:31:00,
2013-03-04 23:42:00,71.0,65.0,30.16,ENE,71,11.0,17.0,81,0.00,,,0.00,,2013-03-05 09:42:00,
2013-03-04 23:52:00,70.0,64.0,30.16,NE,51,12.0,17.0,81,0.00,,,0.00,,2013-03-05 09:52:00,